SYRACUSE 4A

Last updated on Wed Sep 17 2025 00:02:50 GMT+0000 (Coordinated Universal Time)

1 49333U 21095B 25259.44991810 .00000000 00000+0 00000+0 0 9996 2 49333 0.0207 161.6747 0001492 3.3551 38.0792 1.00269641 15215
UTC large
Height (km)
Speed (km/s)
/
Latitude / Longitude
Inclination (degrees)
Orbital Period (minutes)
Azimuth
Elevation
Range (km)
Doppler Factor

Next 0 passes for location: London (51.5072 / 0.1276)

Sorry there are no passes over London.